Location: Unspecified
(0.0000°N, 0.0000°E)
Time: 16:29:07
(UTC+00:00)

AD-A Canister/Altair 2 - Pass Details

Date: 06 May 2025
Orbit: 593 x 2295 km, 78.6° (Epoch: 12 May)

Event Time Altitude Azimuth Distance (km) Brightness Sun altitude
Rises 20:09:05 0° 209° (SSW) 5,887 11.6 -31.5°
Reaches altitude 10° 20:13:25 10° 218° (SW) 4,851 11.2 -32.6°
Maximum altitude 20:23:52 30° 273° (W) 3,205 10.5 -35.0°
Drops below altitude 10° 20:32:49 10° 329° (NNW) 4,065 11.2 -37.1°
Sets 20:36:09 0° 340° (NNW) 4,819 11.6 -37.9°
